Hourly Data Report for October 23, 2016

All times are specified in Local Standard Time (LST). Add 1 hour to adjust for Daylight Saving Time where and when it is observed.

MONCTON INTL A
NEW BRUNSWICK

46°06'44.000" N
64°40'43.000" W
70.70 m
8103201
71705
YQM

Download Data

Hourly Data (October 2016)
Hourly Data Report for October 23, 2016
Temp Definition
°C
Dew Point Temp Definition
°C
Rel Hum Definition
%
Wind Dir Definition
10's deg

Wind Spd Definition
km/h
Visibility Definition
km
Stn Press Definition
kPa
Hmdx Definition


Wind Chill Definition


Weather Definition


TIME
00:00 Legend Double Dagger 15.4 12.4 82 20 27 24.1 98.25     LegendNANA
01:00 Legend Double Dagger 14.4 11.0 80 19 18 24.1 98.26     LegendNANA
02:00 Legend Double Dagger 13.4 9.7 78 20 25 24.1 98.25     Mainly Clear
03:00 Legend Double Dagger 13.2 9.5 78 19 34 24.1 98.20     LegendNANA
04:00 Legend Double Dagger 12.5 9.0 79 19 32 24.1 98.19     LegendNANA
05:00 Legend Double Dagger 11.3 7.1 75 19 47 24.1 98.18     Mainly Clear
06:00 Legend Double Dagger 10.0 6.0 76 18 33 24.1 98.26     LegendNANA
07:00 Legend Double Dagger 9.7 6.3 79 19 32 24.1 98.31     LegendNANA
08:00 Legend Double Dagger 10.0 6.2 77 18 39 24.1 98.31     Mostly Cloudy
09:00 Legend Double Dagger 9.8 6.4 79 19 34 24.1 98.32     Rain Showers
10:00 Legend Double Dagger 9.5 5.9 78 19 37 24.1 98.26     Rain Showers
11:00 Legend Double Dagger 10.5 5.1 69 19 40 24.1 98.22     Mostly Cloudy
12:00 Legend Double Dagger 9.9 4.9 71 19 45 24.1 98.20     LegendNANA
13:00 Legend Double Dagger 9.5 4.3 70 22 40 24.1 98.24     Rain Showers
14:00 Legend Double Dagger 8.5 1.9 63 21 37 24.1 98.31     Rain Showers
15:00 Legend Double Dagger 8.2 1.6 63 21 30 24.1 98.35     LegendNANA
16:00 Legend Double Dagger 6.8 2.1 72 22 27 24.1 98.41     Rain Showers
17:00 Legend Double Dagger 5.8 3.0 82 22 22 24.1 98.47     Rain Showers
18:00 Legend Double Dagger 5.8 1.5 74 21 21 24.1 98.56     LegendNANA
19:00 Legend Double Dagger 5.9 0.9 70 23 30 24.1 98.63     LegendNANA
20:00 Legend Double Dagger 5.5 0.7 71 22 25 24.1 98.65     Cloudy
21:00 Legend Double Dagger 5.3 0.5 71 22 27 24.1 98.65     LegendNANA
22:00 Legend Double Dagger 5.4 0.4 70 24 35 24.1 98.66     LegendNANA
23:00 Legend Double Dagger 4.8 0.8 75 23 35 24.1 98.69     Rain Showers

Notes on Data Quality.

Legend

  • E = Estimated
  • M = Missing
  • NA = Not Available
  • ‡ = Partner data that is not subject to review by the National Climate Archives
Date modified: